Flag for Germany Weather past 2 weeks in Backnang, Baden-Württemberg, Germany

Now
55 °F

Clear.


Feels Like: 55 °F
Forecast: 45 / 73 °F
Wind: 1 mph from Southeast

Location: Oehringen

Current Time: Jul 31, 2015 at 1:35:18 AM

Latest Report: Jul 31, 2015 at 1:00 AM


Visibility: 25 mi

Pressure: 30.09 "Hg

Humidity: 69%

Dew point: 45 °F

Location of BacknangLocation

Historic Weather in Backnang — Graph

°F

Backnang temperature yesterday

Maximum temperature yesterday: 69 °F (at 6:00 PM)
Minimum temperature yesterday: 51 °F (at 4:00 AM)
Average temperature yesterday: 61 °F

Past Weeks' High & Low Weather Summary

 TemperatureHumidityPressure
High95 °F (Jul 17, 7:00 PM)94% (Jul 29, 3:00 PM)30.09 "Hg (Jul 29, 3:00 PM)
Low50 °F (Jul 26, 7:00 AM)19% (Jul 17, 6:00 PM)29.65 "Hg (Jul 24, 9:00 PM)
Average72 °F58%29.91 "Hg
* Reported Jul 15 11:00 PM — Jul 30 11:00 PM, Backnang, Weather by CustomWeather, © 2015

Note: Actual official high and low records may vary slightly from our data, if they occured in-between our weather recording intervals... More about our weather records

Advertising

Backnang weather history for previous 24 hours

 ConditionsComfort  
Time TempWeatherWind HumidityBarometerVisibility
11:00 PM
Thu, Jul 30
60 °FOvercast.1 mph55%30.05 "Hg31 mi
10:00 PM62 °FPassing clouds.3 mph46%30.02 "Hg31 mi
9:00 PM65 °FPassing clouds.3 mph39%30.00 "Hg31 mi
8:00 PM69 °FScattered clouds.3 mph37%29.98 "Hg31 mi
7:00 PM69 °FSunny.5 mph38%29.98 "Hg34 mi
6:00 PM69 °FOvercast.6 mph39%29.98 "Hg34 mi
5:00 PM69 °FPartly sunny.6 mph39%29.97 "Hg19 mi
4:00 PM68 °FScattered clouds.7 mph38%29.98 "Hg19 mi
3:00 PM67 °FOvercast.5 mph43%29.99 "Hg25 mi
2:00 PM67 °FPartly sunny.7 mph43%30.00 "Hg19 mi
1:00 PM65 °FOvercast.3 mph51%30.01 "Hg31 mi
12:00 PM61 °FOvercast.5 mph59%30.02 "Hg22 mi
10:00 AM58 °FOvercast.2 mph71%30.01 "Hg19 mi
9:00 AM56 °FOvercast.1 mph74%30.01 "Hg19 mi
8:00 AM54 °FOvercast.1 mph81%30.00 "Hg19 mi
7:00 AM52 °FOvercast.1 mph83%30.00 "Hg19 mi
5:00 AM51 °FOvercast.2 mph83%30.00 "Hg19 mi
4:00 AM51 °FClear.1 mph84%29.99 "Hg19 mi
3:00 AM51 °FClear.No wind85%29.99 "Hg19 mi
2:00 AM53 °FPassing clouds.1 mph81%29.98 "Hg19 mi
1:00 AM55 °FClear.2 mph74%29.97 "Hg22 mi
Weather by CustomWeather, © 2015

See weather overviewHow to use our weather pages